Location: Unspecified
(0.0000°N, 0.0000°E)
Time: 06:12:03
(UTC+00:00)

Tiros 1 despin weight - Pass Details

Date: 07 October 2020
Orbit: 594 x 641 km, 48.2° (Epoch: 28 October)

Event Time Altitude Azimuth Distance (km) Brightness Sun altitude
Rises 06:03:41 0° 241° (WSW) 2,833 ? 4.0°
Reaches altitude 10° 06:06:18 10° 254° (WSW) 1,924 ? 4.6°
Maximum altitude 06:09:55 25° 309° (NW) 1,211 ? 5.5°
Drops below altitude 10° 06:13:31 10° 5° (N) 1,911 ? 6.4°
Sets 06:16:07 0° 19° (NNE) 2,810 ? 7.0°
